sat.trackr.live / text

‹ back to catalog

STARLINK-1152

NORAD 45096 · 2020-006BE

PAYLOAD ACTIVE UNKNOWN

§ Identity

Operator
Country
US
Launch date
2020-01-29
Launch site
AFETR
Launch vehicle
Mass (kg)
RCS (m²)

Purposes: comms

External: N2YO · Heavens-Above · Gunter

§ Orbital elements

Epoch: 2026-09-19T21:37:40.766592Z

Period
92.24 min
Inclination
53.0281°
Eccentricity
0.0002278
Mean motion
15.61105812 rev/d
Perigee alt
382.9 km
Apogee alt
386.0 km
Semi-major
6,762.6 km
B*
8.4487e-4
RAAN
354.4860°
Arg perigee
36.0502°
Mean anomaly
324.0664°
Rev number
36,770

§ Raw data

STARLINK-11521 45096U 20006BE  26262.90116628  .00072702  00000+0  84487-3 0  99942 45096  53.0281 354.4860 0002278  36.0502 324.0664 15.61105812367708

JSON: /api/v1/satellites/45096 · /tle

For live sub-satellite position, see the globe view (requires WebGL).

§ Visibility from observer

Set your observer location to see the next 7 days of passes ≥ 10°. The values pass through the URL so the page stays shareable.

No JS? Fill the form by hand. The geolocation button needs JavaScript.